TimePST,TemperatureF,Dew PointF,Humidity,Sea Level PressureIn,VisibilityMPH,Wind Direction,Wind SpeedMPH,Gust SpeedMPH,PrecipitationIn,Events,Conditions,WindDirDegrees,DateUTC
12:56 AM,55.0,50.0,83,30.02,10.0,West,5.8,-,0.00,,Overcast,280,2012-11-18 08:56:00
1:56 AM,55.0,50.0,83,30.04,10.0,West,8.1,-,N/A,,Overcast,270,2012-11-18 09:56:00
2:56 AM,55.0,48.0,77,30.04,10.0,Calm,Calm,-,N/A,,Mostly Cloudy,0,2012-11-18 10:56:00
3:56 AM,53.1,46.9,80,30.04,10.0,Calm,Calm,-,N/A,,Mostly Cloudy,0,2012-11-18 11:56:00
4:56 AM,52.0,48.9,89,30.07,10.0,Calm,Calm,-,N/A,,Overcast,0,2012-11-18 12:56:00
5:56 AM,53.1,48.9,86,30.08,10.0,WSW,3.5,-,N/A,,Overcast,250,2012-11-18 13:56:00
6:56 AM,52.0,48.0,86,30.09,10.0,Calm,Calm,-,N/A,,Mostly Cloudy,0,2012-11-18 14:56:00
7:56 AM,53.1,48.9,86,30.10,10.0,SSE,5.8,-,N/A,,Scattered Clouds,160,2012-11-18 15:56:00
8:56 AM,55.9,48.9,77,30.11,10.0,SE,5.8,-,N/A,,Scattered Clouds,140,2012-11-18 16:56:00
9:56 AM,57.9,48.0,70,30.13,10.0,ESE,3.5,-,N/A,,Mostly Cloudy,110,2012-11-18 17:56:00
10:56 AM,59.0,50.0,72,30.14,10.0,East,6.9,-,N/A,,Mostly Cloudy,90,2012-11-18 18:56:00
11:56 AM,61.0,43.0,52,30.12,10.0,Variable,4.6,-,N/A,,Mostly Cloudy,0,2012-11-18 19:56:00
12:56 PM,61.0,46.9,60,30.12,10.0,East,4.6,-,N/A,,Scattered Clouds,90,2012-11-18 20:56:00
1:56 PM,61.0,41.0,48,30.13,10.0,SSW,10.4,-,N/A,,Mostly Cloudy,200,2012-11-18 21:56:00
2:56 PM,61.0,41.0,48,30.12,10.0,South,9.2,-,N/A,,Mostly Cloudy,170,2012-11-18 22:56:00
3:56 PM,61.0,42.1,50,30.12,10.0,SSW,5.8,-,N/A,,Mostly Cloudy,200,2012-11-18 23:56:00
4:56 PM,59.0,43.0,55,30.14,10.0,SW,6.9,-,N/A,,Mostly Cloudy,230,2012-11-19 00:56:00
5:56 PM,59.0,43.0,55,30.14,10.0,South,10.4,-,N/A,,Mostly Cloudy,190,2012-11-19 01:56:00
6:56 PM,57.9,43.0,58,30.14,10.0,South,9.2,-,N/A,,Mostly Cloudy,170,2012-11-19 02:56:00
7:56 PM,59.0,41.0,51,30.15,10.0,South,3.5,-,N/A,,Overcast,180,2012-11-19 03:56:00
8:56 PM,57.9,42.1,56,30.17,10.0,SW,4.6,-,N/A,,Overcast,220,2012-11-19 04:56:00
9:56 PM,57.9,42.1,56,30.17,10.0,Calm,Calm,-,0.00,,Overcast,0,2012-11-19 05:56:00
10:56 PM,57.0,43.0,59,30.17,10.0,SSE,4.6,-,0.00,Rain,Light Rain,150,2012-11-19 06:56:00
11:56 PM,57.0,45.0,64,30.17,10.0,SSE,3.5,-,0.00,,Overcast,150,2012-11-19 07:56:00